Date String (YYYY-MM-DD hh:mm:ss) UTC,Instrument flags,absolute air pressure of the measurement (hPa),sample flow rate (lpm),inlet stack bypass flow (lpm),air temperature of the measurement (°C),ambient temperature measured by the external sensor (°C),aerosol sample conditioner tube jacket temperature (°C),OPC LED temperature (°C),internal box temperature (°C),relative humidity of the measurement (%),span deviation,mass concentration of particles derived from Lorenz-Mie calculation of OPC scattering (μg/m³),mass concentration of particles derived from Lorenz-Mie calculation of OPC scattering (μg/m³),mass concentration of particles derived from Lorenz-Mie calculation of OPC scattering (μg/m³)
DateTimeUTC,F1_M11,P_M11,Q1_M11,Q2_M11,T1_M11,T2_M11,T3_M11,T4_M11,T5_M11,U1_M11,ZSPAN_M11,X0_M11,X2_M11,X1_M11
2024-05-06 08:00:00,SystemResetWarning,0810.4,5.00,000.00,025.8,025.1,000.0,034.3,027.6,015.2,0000.0,0008.59,0003.47,0001.81
2024-05-06 08:01:00,SystemResetWarning,0810.4,5.00,000.00,025.8,025.0,000.0,034.3,027.6,015.2,0000.0,0008.69,0003.48,0001.81
2024-05-06 08:02:00,SystemResetWarning,0810.4,5.02,000.00,025.8,025.0,000.0,034.3,027.6,015.2,0000.0,0008.75,0003.48,0001.81
2024-05-06 08:03:00,SystemResetWarning,0810.4,5.00,000.00,025.8,025.0,000.0,034.3,027.6,015.2,0000.0,0009.04,0003.52,0001.81
2024-05-06 08:04:00,SystemResetWarning,0810.3,4.99,000.00,025.8,025.0,000.0,034.3,027.6,015.4,0000.0,0009.24,0003.46,0001.81
2024-05-06 08:05:00,SystemResetWarning,0810.2,5.00,000.00,025.8,025.0,000.0,034.3,027.6,016.0,0000.0,0009.14,0003.44,0001.78
2024-05-06 08:06:00,SystemResetWarning,0810.2,4.99,000.00,025.8,025.0,000.0,034.3,027.7,016.1,0000.0,0008.98,0003.39,0001.77
2024-05-06 08:07:00,SystemResetWarning,0810.3,5.00,000.00,025.8,025.0,000.0,034.3,027.7,016.0,0000.0,0008.91,0003.38,0001.78
2024-05-06 08:08:00,SystemResetWarning,0810.4,5.01,000.00,025.8,025.0,000.0,034.3,027.7,016.0,0000.0,0008.90,0003.42,0001.82
2024-05-06 08:09:00,SystemResetWarning,0810.4,5.01,000.00,025.8,025.1,000.0,034.3,027.6,015.9,0000.0,0008.90,0003.43,0001.86
2024-05-06 08:10:00,SystemResetWarning,0810.3,5.00,000.00,025.8,025.1,000.0,034.3,027.6,015.8,0000.0,0008.38,0003.41,0001.89
2024-05-06 08:11:00,SystemResetWarning,0810.1,4.99,000.00,025.9,025.1,000.0,034.3,027.7,015.7,0000.0,0008.29,0003.42,0001.92
2024-05-06 08:12:00,SystemResetWarning,0810.1,5.00,000.00,025.9,025.1,000.0,034.3,027.7,015.7,0000.0,0008.55,0003.43,0001.93
2024-05-06 08:13:00,SystemResetWarning,0810.1,5.00,000.00,025.9,025.1,000.0,034.3,027.7,015.7,0000.0,0008.32,0003.46,0001.96
2024-05-06 08:14:00,SystemResetWarning,0810.1,5.00,000.00,025.9,025.1,000.0,034.3,027.7,015.7,0000.0,0008.14,0003.45,0001.98
2024-05-06 08:15:00,SystemResetWarning,0810.0,5.01,000.00,025.9,025.1,000.0,034.4,027.7,015.7,0000.0,0007.88,0003.50,0002.01
2024-05-06 08:16:00,SystemResetWarning,0810.1,4.99,000.00,025.9,025.2,000.0,034.4,027.7,015.6,0000.0,0008.34,0003.47,0002.03
2024-05-06 08:17:00,SystemResetWarning,0810.0,4.99,000.00,025.9,025.2,000.0,034.4,027.7,015.7,0000.0,0008.96,0003.48,0002.07
2024-05-06 08:18:00,SystemResetWarning,0810.0,5.01,000.00,025.9,025.2,000.0,034.4,027.7,015.6,0000.0,0008.98,0003.51,0002.10
2024-05-06 08:19:00,SystemResetWarning,0809.9,5.01,000.00,025.9,025.2,000.0,034.4,027.7,015.6,0000.0,0009.12,0003.56,0002.09
2024-05-06 08:20:00,SystemResetWarning,0809.9,4.98,000.00,025.9,025.2,000.0,034.4,027.8,015.6,0000.0,0009.29,0003.62,0002.09
2024-05-06 08:21:00,SystemResetWarning,0809.8,5.00,000.00,026.0,025.2,000.0,034.4,027.8,015.5,0000.0,0009.39,0003.69,0002.11
2024-05-06 08:22:00,SystemResetWarning,0809.9,5.01,000.00,026.0,025.2,000.0,034.4,027.8,015.5,0000.0,0009.33,0003.66,0002.12
2024-05-06 08:23:00,SystemResetWarning,0809.8,4.98,000.00,026.0,025.2,000.0,034.4,027.8,015.5,0000.0,0009.44,0003.67,0002.14
2024-05-06 08:24:00,SystemResetWarning,0809.9,5.01,000.00,026.0,025.2,000.0,034.4,027.8,015.5,0000.0,0009.55,0003.70,0002.15
2024-05-06 08:25:00,SystemResetWarning,0809.8,5.01,000.00,026.0,025.2,000.0,034.4,027.8,015.4,0000.0,0009.44,0003.65,0002.17
2024-05-06 08:26:00,SystemResetWarning,0809.8,4.99,000.00,026.0,025.2,000.0,034.5,027.8,015.5,0000.0,0009.42,0003.62,0002.18
2024-05-06 08:27:00,SystemResetWarning,0809.6,4.99,000.00,026.0,025.3,000.0,034.5,027.9,015.5,0000.0,0009.27,0003.62,0002.20
2024-05-06 08:28:00,SystemResetWarning,0809.5,5.01,000.00,026.0,025.3,000.0,034.5,027.8,015.4,0000.0,0008.48,0003.67,0002.20
2024-05-06 08:29:00,SystemResetWarning,0809.5,5.01,000.00,026.0,025.2,000.0,034.5,027.7,015.5,0000.0,0009.04,0003.69,0002.21
2024-05-06 08:30:00,SystemResetWarning,0809.5,4.98,000.00,025.8,023.4,000.0,034.5,026.7,015.6,0000.0,0009.48,0003.68,0002.23
2024-05-06 08:31:00,SystemResetWarning,0809.4,5.03,000.00,025.3,022.0,000.0,034.5,025.9,016.0,0000.0,0009.74,0003.65,0002.24
2024-05-06 08:32:00,SystemResetWarning,0809.4,4.99,000.00,025.1,022.1,000.0,034.4,025.8,016.2,0000.0,0010.40,0003.58,0002.22
2024-05-06 08:33:00,SystemResetWarning,0809.4,5.00,000.00,025.0,022.4,000.0,034.2,026.1,016.3,0000.0,0010.38,0003.51,0002.20
2024-05-06 08:34:00,SystemResetWarning,0809.3,5.01,000.00,025.0,022.8,000.0,034.0,026.3,016.3,0000.0,0010.63,0003.52,0002.20
2024-05-06 08:35:00,SystemResetWarning,0809.3,5.01,000.00,025.0,023.1,000.0,033.9,026.4,016.4,0000.0,0010.72,0003.54,0002.22
2024-05-06 08:36:00,SystemResetWarning,0809.2,5.00,000.00,025.0,023.4,000.0,033.8,026.5,016.3,0000.0,0011.33,0003.64,0002.24
2024-05-06 08:37:00,SystemResetWarning,0809.2,4.98,000.00,025.0,023.6,000.0,033.8,026.7,016.3,0000.0,0011.60,0003.66,0002.23
2024-05-06 08:38:00,SystemResetWarning,0809.1,5.01,000.00,025.1,023.8,000.0,033.8,026.8,016.3,0000.0,0012.35,0003.68,0002.22
2024-05-06 08:39:00,SystemResetWarning,0809.1,5.01,000.00,025.1,024.0,000.0,033.7,026.8,016.3,0000.0,0013.30,0003.68,0002.22
2024-05-06 08:40:00,SystemResetWarning,0809.1,5.00,000.00,025.1,024.1,000.0,033.7,026.9,016.3,0000.0,0013.44,0003.68,0002.21
2024-05-06 08:41:00,SystemResetWarning,0809.1,5.00,000.00,025.1,024.2,000.0,033.7,026.9,016.4,0000.0,0013.09,0003.73,0002.20
2024-05-06 08:42:00,SystemResetWarning,0809.1,4.99,000.00,025.2,024.3,000.0,033.7,026.9,016.3,0000.0,0012.81,0003.75,0002.22
2024-05-06 08:43:00,SystemResetWarning,0809.0,5.00,000.00,025.2,024.4,000.0,033.7,027.0,016.3,0000.0,0012.25,0003.82,0002.23
2024-05-06 08:44:00,SystemResetWarning,0809.1,5.01,000.00,025.2,024.5,000.0,033.7,027.0,016.3,0000.0,0012.28,0003.90,0002.24
2024-05-06 08:45:00,SystemResetWarning,0809.1,5.00,000.00,025.2,024.5,000.0,033.7,027.0,016.3,0000.0,0011.89,0003.95,0002.25
2024-05-06 08:46:00,SystemResetWarning,0809.1,5.00,000.00,025.3,024.6,000.0,033.7,027.0,016.3,0000.0,0011.47,0003.92,0002.26
2024-05-06 08:47:00,SystemResetWarning,0809.3,5.00,000.00,025.3,024.6,000.0,033.7,027.1,016.3,0000.0,0011.01,0003.83,0002.23
2024-05-06 08:48:00,SystemResetWarning,0809.2,4.99,000.00,025.3,024.7,000.0,033.7,027.1,016.1,0000.0,0010.79,0003.79,0002.24
2024-05-06 08:49:00,SystemResetWarning,0809.2,5.01,000.00,025.3,024.7,000.0,033.7,027.2,016.1,0000.0,0010.18,0003.76,0002.26
2024-05-06 08:50:00,SystemResetWarning,0809.1,5.00,000.00,025.4,024.7,000.0,033.7,027.2,016.1,0000.0,0008.98,0003.72,0002.25
2024-05-06 08:51:00,SystemResetWarning,0809.1,4.99,000.00,025.4,024.7,000.0,033.7,027.2,015.9,0000.0,0008.44,0003.75,0002.25
2024-05-06 08:52:00,SystemResetWarning,0809.2,4.99,000.00,025.4,024.7,000.0,033.7,027.2,015.9,0000.0,0008.66,0003.73,0002.24
2024-05-06 08:53:00,SystemResetWarning,0809.2,5.00,000.00,025.4,024.8,000.0,033.7,027.2,015.9,0000.0,0008.59,0003.70,0002.24
2024-05-06 08:54:00,SystemResetWarning,0809.2,5.00,000.00,025.4,024.8,000.0,033.8,027.3,016.0,0000.0,0009.12,0003.68,0002.24
2024-05-06 08:55:00,SystemResetWarning,0809.2,5.00,000.00,025.5,024.8,000.0,033.8,027.3,015.9,0000.0,0009.30,0003.64,0002.24
2024-05-06 08:56:00,SystemResetWarning,0809.1,5.02,000.00,025.5,024.8,000.0,033.8,027.3,015.9,0000.0,0009.15,0003.56,0002.22
2024-05-06 08:57:00,SystemResetWarning,0809.1,5.00,000.00,025.5,024.8,000.0,033.8,027.3,015.9,0000.0,0009.16,0003.56,0002.21
2024-05-06 08:58:00,SystemResetWarning,0809.1,5.00,000.00,025.5,024.8,000.0,033.8,027.3,015.8,0000.0,0009.97,0003.56,0002.21
2024-05-06 08:59:00,SystemResetWarning,0809.1,5.00,000.00,025.5,024.8,000.0,033.8,027.3,015.8,0000.0,0009.78,0003.58,0002.20
